STARLINK-32786, 62528

Orbit data source: Space-Track

STARLINK-32786, 62528 is a payload satellite owned by SpaceX/Seattle (US) in LEO that was launched on Wed, 08 Jan 2025 UTC via an FALCON 9 launch vehicle from the Air Force Eastern Test Range (AFETR). Payloads include a variety of satellites, spacecraft, and rockets equipped with specific instruments for various scientific and technological missions. These include communications satellites like Starlink; space stations such as the ISS; scientific satellites like the Hubble; Earth observation satellites from companies like Planet Labs, Umbra, and HawkEye 360; GPS; miniature CubeSats for education and research; and military/defense satellites.

Loading next visibility...
STARLINK-32786 details
Identifier
62528, 2025-004T
Orbit
LEO
Last TLE update14 hours ago
Origin
Flag of USSpaceX/Seattle (US)
ManufacturerSpaceX/Seattle
MissionOperational spacecraft
Bus & MotorSTARLINK V2M, Unknown motor
Mass730 kg wet, ~700 kg dry
Launch date (UTC)
2025-01-08 (1 month ago)
Launch vehicle
FALCON 9
Launch site
Air Force Eastern Test Range (AFETR)
Object type
Payload
Rocket body
Debris
Shape & HBRUnknown
Radar Cross SectionLarge (>1 m²)

Expand to show TLE details & history

TLE from 14 hours ago
0 STARLINK-32786
1 62528U 25004T   25035.58335648 -.01514197  00000-0 -32199-1 0  9996
2 62528  42.9994 313.3523 0001704 263.7519  94.8371 15.47158943  3391
Epoch: 2025-02-04T14:00Z
Definitive object data (Epoch: 2025-02-04T14:00:01.999Z)
Latitude-1.01364°
Longitude-32.72374°
Altitude425.05 km
Speed7.658 km/s
True Right ascension20h 49m 05s
True Declination-1° 00' 26"
Sunlit
Object was in daylight at TLE epoch
Visualization TLE readout
Latitude7.48316°
Longitude-26.98211°
Altitude430.044 km
Speed7.656 km/s
Apparent Right ascension19h 53m 06s
Apparent Declination-16° 36' 50"
Sunlit
Object is in daylight
Visualization observer readout
Local Sidereal Time06:02:11
Azimuth306.086° NW
Elevation-56.514°
Doppler factor1
Orbital elements
Apogee altitude428.163 km
Perigee altitude425.844 km
Semi-major axis6,805.141 km
Eccentricity0.0001704
Inclination42.9994°
RAAN313.3523°
Arg. of periapsis263.7519°
True anomaly94.85656°
Mean anomaly94.8371°
Eccentric anomaly94.84683°
Mean motion3.86623 °/min
BSTAR-0.032199
Orbital period93.11 mins
Loading maneuver chart data...
Loading historical data...
Loading historical data...
Loading historical data...
Loading historical data...
Loading historical data...
Loading historical data...
Loading historical data...

STARLINK-32786 Visibility forecast

Observer location: undefined°, undefined

Span
Click to sort rows by Start time (UTC) header in descending order
Start Az.
Max El. time (UTC)
Max El. Az.
Max El.
End time (UTC)
End Az.
4 mins2025-02-05 21:15:25.446Z191.498° SSW2025-02-05 21:16:25.446Z164.52° S25.992°2025-02-05 21:19:25.446Z90.828° ESE
5 mins2025-02-05 22:52:25.446Z263.825° W2025-02-05 22:54:25.446Z316.484° NNW42.985°2025-02-05 22:57:25.446Z69.124° E
5 mins2025-02-06 00:30:25.446Z292.179° WNW2025-02-06 00:32:25.446Z340.23° N36.277°2025-02-06 00:35:25.446Z76.36° E
5 mins2025-02-06 02:08:25.446Z285.602° WNW2025-02-06 02:10:25.446Z266.17° W42.012°2025-02-06 02:13:25.446Z115.393° SE
|